CEB476 RPVB-RPLL

Flight info

Callsign CEB476
Flight time N/A
Altitude 38000
Route GLA2A GALIA TR8 KLO TR19 MINOR B473 LAIYA LAIYA7R
Aircraft A20N/M-V/N

Departure

Time 2026-04-21 13:11
Airport Bacolod-Silay International Airport (RPVB)

Arrival

Time N/A
Airport Ninoy Aquino International Airport (RPLL)
Time Latitude Longitude Altitude Speed Heading
2026-04-21 12:48 10.77674 123.01579 36 ft 0 kts 299°
2026-04-21 13:02 10.77674 123.01578 36 ft 0 kts 299°
2026-04-21 13:02 10.77669 123.01586 36 ft 2 kts 299°
2026-04-21 13:02 10.77655 123.01612 36 ft 1 kts 299°
2026-04-21 13:03 10.77650 123.01621 36 ft 2 kts 282°
2026-04-21 13:03 10.77651 123.01636 36 ft 2 kts 254°
2026-04-21 13:03 10.77657 123.01650 36 ft 2 kts 225°
2026-04-21 13:03 10.77664 123.01655 36 ft 1 kts 209°
2026-04-21 13:04 10.77669 123.01658 36 ft 0 kts 210°
2026-04-21 13:05 10.77659 123.01652 36 ft 5 kts 211°
2026-04-21 13:05 10.77600 123.01616 36 ft 11 kts 210°
2026-04-21 13:06 10.77525 123.01572 36 ft 12 kts 210°
2026-04-21 13:06 10.77445 123.01525 36 ft 13 kts 210°
2026-04-21 13:06 10.77361 123.01527 36 ft 13 kts 135°
2026-04-21 13:06 10.77325 123.01582 36 ft 0 kts 120°
2026-04-21 13:07 10.77323 123.01587 36 ft 2 kts 120°
2026-04-21 13:07 10.77321 123.01589 36 ft 0 kts 120°
2026-04-21 13:08 10.77320 123.01592 36 ft 2 kts 120°
2026-04-21 13:08 10.77290 123.01641 36 ft 13 kts 130°
2026-04-21 13:08 10.77183 123.01633 36 ft 20 kts 210°
2026-04-21 13:09 10.77039 123.01549 36 ft 27 kts 210°
2026-04-21 13:09 10.76931 123.01456 36 ft 14 kts 237°
2026-04-21 13:09 10.76913 123.01474 36 ft 4 kts 26°
2026-04-21 13:09 10.76927 123.01485 36 ft 0 kts 28°
2026-04-21 13:10 10.76928 123.01485 36 ft 0 kts 28°
2026-04-21 13:10 10.76978 123.01514 36 ft 37 kts 30°
2026-04-21 13:10 10.77331 123.01720 37 ft 103 kts 29°
2026-04-21 13:10 10.78126 123.02183 220 ft 146 kts 31°
2026-04-21 13:11 10.79002 123.02688 879 ft 149 kts 32°
2026-04-21 13:11 10.79874 123.03190 1744 ft 143 kts 33°
2026-04-21 13:11 10.80740 123.03695 2320 ft 151 kts 34°
2026-04-21 13:11 10.81697 123.04259 2792 ft 167 kts 34°
2026-04-21 13:12 10.82760 123.04883 3256 ft 186 kts 34°
2026-04-21 13:12 10.83935 123.05573 3759 ft 204 kts 33°
2026-04-21 13:12 10.85261 123.06319 4162 ft 228 kts 26°
2026-04-21 13:12 10.86927 123.06541 4613 ft 258 kts 352°
2026-04-21 13:13 10.88593 123.05710 5160 ft 282 kts 318°
2026-04-21 13:13 10.89655 123.03979 5973 ft 291 kts 294°
2026-04-21 13:13 10.90436 123.02071 6821 ft 294 kts 294°
2026-04-21 13:13 10.91243 123.00177 7648 ft 296 kts 295°
2026-04-21 13:14 10.92088 122.98237 8477 ft 298 kts 295°
2026-04-21 13:14 10.92947 122.96298 9241 ft 301 kts 295°
2026-04-21 13:14 10.93839 122.94319 10006 ft 304 kts 295°
2026-04-21 13:14 10.94736 122.92352 10636 ft 310 kts 295°
2026-04-21 13:15 10.95714 122.90305 11033 ft 325 kts 300°
2026-04-21 13:15 10.97227 122.88554 11618 ft 331 kts 321°
2026-04-21 13:15 10.99126 122.87193 12344 ft 332 kts 326°
2026-04-21 13:15 11.01083 122.85896 13024 ft 333 kts 326°
2026-04-21 13:16 11.03060 122.84570 13657 ft 336 kts 325°
2026-04-21 13:16 11.04999 122.83231 14248 ft 339 kts 324°
2026-04-21 13:16 11.06939 122.81868 14820 ft 342 kts 324°
2026-04-21 13:16 11.08925 122.80457 15388 ft 346 kts 324°
2026-04-21 13:17 11.10897 122.79050 15932 ft 349 kts 324°
2026-04-21 13:17 11.12903 122.77613 16464 ft 353 kts 323°
2026-04-21 13:17 11.14937 122.76154 16995 ft 356 kts 323°
2026-04-21 13:17 11.16961 122.74700 17518 ft 359 kts 323°
2026-04-21 13:18 11.19013 122.73223 18043 ft 361 kts 324°
2026-04-21 13:18 11.21081 122.71737 18551 ft 364 kts 324°
2026-04-21 13:18 11.23200 122.70213 19038 ft 367 kts 324°
2026-04-21 13:18 11.25285 122.68713 19505 ft 370 kts 324°
2026-04-21 13:19 11.27401 122.67190 19977 ft 373 kts 324°
2026-04-21 13:19 11.29530 122.65660 20435 ft 376 kts 324°
2026-04-21 13:19 11.31712 122.64108 20887 ft 379 kts 324°
2026-04-21 13:19 11.33891 122.62581 21339 ft 382 kts 324°
2026-04-21 13:20 11.35368 122.61547 21645 ft 384 kts 324°
2026-04-21 13:20 11.38324 122.59479 22236 ft 388 kts 324°
2026-04-21 13:20 11.40565 122.57908 22703 ft 391 kts 324°
2026-04-21 13:20 11.42836 122.56314 23169 ft 393 kts 324°
2026-04-21 13:21 11.45110 122.54718 23617 ft 397 kts 324°
2026-04-21 13:21 11.47387 122.53116 24080 ft 399 kts 324°
2026-04-21 13:21 11.49703 122.51486 24545 ft 402 kts 324°
2026-04-21 13:21 11.52012 122.49861 25001 ft 404 kts 324°
2026-04-21 13:22 11.54362 122.48208 25440 ft 407 kts 324°
2026-04-21 13:22 11.56703 122.46558 25870 ft 409 kts 324°
2026-04-21 13:22 11.59065 122.44894 26283 ft 412 kts 324°
2026-04-21 13:22 11.61442 122.43218 26707 ft 415 kts 324°
2026-04-21 13:23 11.63813 122.41548 27128 ft 417 kts 324°
2026-04-21 13:23 11.66264 122.39896 27524 ft 420 kts 328°
2026-04-21 13:23 11.68902 122.38557 27899 ft 424 kts 337°
2026-04-21 13:23 11.71712 122.37595 28272 ft 427 kts 345°
2026-04-21 13:24 11.74631 122.36912 28630 ft 430 kts 347°
2026-04-21 13:24 11.77591 122.36286 28988 ft 433 kts 347°
2026-04-21 13:24 11.80565 122.35664 29375 ft 434 kts 347°
2026-04-21 13:24 11.83530 122.35037 29744 ft 435 kts 347°
2026-04-21 13:25 11.86515 122.34399 30089 ft 436 kts 346°
2026-04-21 13:25 11.89510 122.33755 30421 ft 438 kts 346°
2026-04-21 13:25 11.92512 122.33106 30742 ft 440 kts 346°
2026-04-21 13:25 11.95530 122.32450 31049 ft 441 kts 346°
2026-04-21 13:26 11.98578 122.31788 31344 ft 443 kts 346°
2026-04-21 13:26 12.01592 122.31132 31633 ft 445 kts 346°
2026-04-21 13:26 12.04656 122.30467 31884 ft 446 kts 346°
2026-04-21 13:26 12.07736 122.29797 31913 ft 446 kts 346°
2026-04-21 13:27 12.13858 122.28464 31918 ft 445 kts 346°
2026-04-21 13:27 12.19957 122.27136 31919 ft 445 kts 346°
2026-04-21 13:28 12.26059 122.25806 31919 ft 445 kts 346°
2026-04-21 13:28 12.29973 122.24908 31919 ft 444 kts 343°